STARLINK-2330, 47874

Orbit data source: Space-Track

STARLINK-2330, 47874 is a payload satellite owned by SpaceX/Seattle (US) in LEO that was launched on Sun, 14 Mar 2021 UTC via an FALCON 9 launch vehicle from the Air Force Eastern Test Range (AFETR). Payload-class satellites include a variety of spacecraft equipped with specific instruments for various scientific and technological missions. These include communications satellites like Starlink; space stations such as the ISS; scientific satellites like the Hubble; Earth observation satellites from companies like Planet Labs, Umbra, and HawkEye 360; GPS; miniature CubeSats for education and research; and military/defense satellites.

Loading next visibility...
Identifier
47874, 2021-021Q
Orbit
LEO
Country
Flag of USUS
Related business
Manufacturer
SpaceX/Seattle
Mission
Partially operational Commercial Communications
Bus & Motor
STARLINK, Unknown motor
Mass
260 kg wet, ~248 kg dry
Launch date (UTC)
2021-03-14 (5 years ago)
Launch vehicle
FALCON 9
Launch site
Air Force Eastern Test Range (AFETR)
Object type
Payload
Rocket body
Debris
Shape & HBR
Box + 1 Pan, 10.1 m
Radar Cross Section
13.562 m², Large (>1 m²)

Expand to show TLE details & history
Last TLE update: 3 days ago

TLE from 3 days ago
0 STARLINK-2330
1 47874U 21021Q   26170.97128175  .00053858  00000-0  14211-2 0  9992
2 47874  53.1415  99.2009 0004220  67.6079 292.5372 15.37970530292657
Epoch: 2026-06-19T23:18Z
TLE epoch observation values (Epoch: 2026-06-19T23:18:38.743Z)
Latitude
0.00002°
Longitude
-158.65312°
Altitude
451.908 km
Speed
7.643 km/s
True Right ascension
06h 36m 48s
True Declination
0° 00' 00"
Sunlit
Object was in daylight at epoch
Visualization orbit readout
Latitude
Unknown
Longitude
Unknown
Altitude
Unknown
Speed
Unknown
Apparent Right ascension
Unknown
Apparent Declination
Unknown
Sunlit
N/A
Visualization observer readout
Local Sidereal Time
00:37:45
Azimuth
Unknown
Elevation
Unknown
Doppler factor
Unknown
Orbital elements
Apogee altitude
455.254 km
Perigee altitude
449.489 km
Semi-major axis
6,830.509 km
Eccentricity
0.00042
Inclination
53.1415°
RAAN
99.2009°
Arg. of periapsis
67.6079°
True anomaly
292.49253°
Mean anomaly
292.5372°
Eccentric anomaly
292.51486°
Mean motion
3.84471 °/min
Orbital period
93.64 mins
BSTAR
0.0014211
Loading maneuver chart data...
Computing Atmospheric mass density...

Documentation

Showing up to 5 results
|